Location: Unspecified
(50.7693°N, 0.0000°E)
Time: 18:02:33
(UTC+00:00)

SR - Pass Details

Date: 01 July 2019
Orbit: 578 x 878 km, 66.7° (Epoch: 24 August)

Event Time Altitude Azimuth Distance (km) Brightness Sun altitude
Rises 09:23:02 0° 323° (NW) 2,999 ? 48.4°
Reaches altitude 10° 09:25:16 10° 326° (NW) 2,127 ? 48.8°
Maximum altitude 09:30:06 70° 50° (NE) 772 ? 49.4°
Drops below altitude 10° 09:35:22 10° 135° (SE) 2,314 ? 50.2°
Sets 09:37:53 0° 137° (SE) 3,286 ? 50.5°
